[[{"header":{"parameterUnit":"m.s-1","parameterCategory":1,"la1":30.2991,"la2":30.254,"lo1":-89.0895,"lo2":-89.0444,"dy":0.0017,"dx":0.0017,"nx":28,"ny":28,"refTime":"2023-06-26T21:00:00:Z","depth":0,"parameterNumber":2,"parameterNumberName":"U-component_of_WINDS"},"data":[0,0,0,0,0,0,0,0,0,0,0,0,0,0,0,0,0,0,0,0,0,0,0,0,0,0,0,0,0,0,0,0,0,0,0,0,0,0,0,0,0,0,0,0,0,0,0,0,0,0,0,0,0,0,0,0,0,0,2.0181,2.0182,0,2.022,2.022,2.0221,2.0159,2.0156,2.0154,2.0152,2.02,2.0203,2.0206,0,0,0,0,0,0,0,0,0,0,0,0,0,2.0062,2.0065,2.0181,2.0182,2.0182,2.022,2.022,2.0221,2.0159,2.0156,2.0154,2.0151,2.0199,2.0203,2.0207,0,0,0,0,0,0,0,0,0,0,0,0,0,2.0109,2.0065,2.0181,2.0156,2.0154,2.022,2.022,2.0221,2.016,2.0156,2.0153,2.015,2.0197,2.0202,2.0207,2.0302,0,0,2.0222,2.0224,0,0,0,0,0,0,0,0,2.0106,2.0113,2.0159,2.0158,2.0156,2.0181,2.0196,2.0249,2.016,2.0158,2.0152,2.0148,2.0197,2.0201,2.0216,2.0304,2.0306,2.0223,2.0225,2.0228,2.0229,0,0,0,0,0,0,0,2.0103,2.0111,2.0197,2.016,2.0158,2.0145,2.0148,2.0205,2.0195,2.0158,2.0153,2.0158,2.0195,2.0211,2.0217,2.0307,2.0222,2.0227,2.023,2.0232,2.0478,2.0481,0,0,0,0,0,0,2.0102,2.0109,2.0196,2.0198,2.0122,2.015,2.0153,2.0176,2.0194,2.0194,2.0161,2.0155,2.0205,2.0211,2.0218,2.0333,2.0228,2.0232,2.0235,2.0474,2.0479,2.0482,0,0,0,0,0,0,2.01,2.011,2.0194,2.0152,2.0162,2.0155,2.0182,2.0179,2.0195,2.0197,2.0195,2.0179,2.0202,2.0211,2.0282,2.0333,2.0234,2.0239,2.047,2.0476,2.0481,2.0561,0,0,0,0,0,0,2.0096,2.011,2.0144,2.0153,2.0164,2.0255,2.0185,2.0182,2.0203,2.0195,2.0213,2.0213,2.02,2.0275,2.0287,2.0338,2.0243,2.0465,2.0473,2.0479,2.0554,2.0569,2.0582,0,0,0,0,0,2.0092,2.0167,2.0146,2.0157,2.0207,2.0258,2.0264,2.0246,2.0207,2.0243,2.0244,2.0213,2.0325,2.0282,2.0295,2.0349,2.0462,2.0471,2.0478,2.0548,2.0566,2.0581,0,0,0,0,0,0,2.0166,2.0167,2.0145,2.0223,2.0241,2.0247,2.0292,2.0265,2.0296,2.0289,2.0267,2.0272,2.0348,2.0355,2.0307,2.0443,2.0387,2.0399,2.0436,2.0453,2.0467,2.0465,2.0247,0,0,0,0,0,2.0191,2.023,2.023,2.03,2.0309,2.0299,2.0321,2.0305,2.0323,2.0331,2.0337,2.0358,2.0398,2.0426,2.0463,2.0554,2.0559,2.0598,2.0611,2.0622,2.0633,2.0685,2.0703,2.0509,2.0509,2.0509,0,0,2.0244,2.025,2.0276,2.0315,2.0326,2.037,2.0306,2.0355,2.0388,2.0339,2.0406,2.0411,2.0434,2.0515,2.0552,2.0524,2.0687,2.0633,2.0642,2.0647,2.0695,2.0713,2.073,2.0515,2.0514,2.0513,0,0,2.0364,2.037,2.043,2.0443,2.046,2.0452,2.0467,2.0477,2.0478,2.0544,2.0509,2.0549,2.0618,2.0636,2.0654,2.078,2.0754,2.0793,2.0866,2.0916,2.0931,2.0945,2.0993,2.101,2.0803,2.0803,2.0803,0,2.0429,2.0491,2.0465,2.0516,2.0536,2.049,2.0553,2.0566,2.0596,2.0612,2.0579,2.0666,2.0677,2.0764,2.0794,2.0809,2.0828,2.0792,2.0931,2.0944,2.0956,2.1002,2.102,2.0808,2.0808,2.0807,2.0807,0,2.0571,2.0615,2.0661,2.0689,2.0713,2.0769,2.0755,2.0783,2.0765,2.0762,2.0831,2.0843,2.0882,2.0901,2.0884,2.0986,2.0968,2.0933,2.0878,2.098,2.1023,2.104,2.0815,2.0813,2.0812,2.0811,0,0,2.0741,2.0752,2.077,2.0783,2.0798,2.0833,2.0888,2.0924,2.095,2.0971,2.102,2.1078,2.1046,2.1067,2.1052,2.1096,2.1198,2.1056,2.1056,2.1085,2.1314,2.1343,2.1363,2.1179,2.1182,2.1185,2.1313,0,2.0863,2.0955,2.0934,2.1027,2.1069,2.1026,2.1074,2.1091,2.1089,2.1126,2.1125,2.1168,2.1121,2.1134,2.1174,2.1177,2.1245,2.1167,2.1227,2.123,2.1226,2.1384,2.1415,2.1535,2.1329,2.1332,2.1334,0,2.1017,2.1042,2.1139,2.1148,2.1165,2.1209,2.1241,2.1275,2.1294,2.129,2.1312,2.1289,2.1347,2.1287,2.1368,2.1316,2.1339,2.1344,2.1348,2.1356,2.1291,2.14,2.1573,2.1593,2.1359,2.1357,2.1356,0,2.1136,2.1194,2.1259,2.1271,2.1283,2.1315,2.1322,2.1336,2.136,2.1388,2.1404,2.1439,2.146,2.1489,2.1477,2.1434,2.1562,2.15,2.1563,2.1564,2.1595,2.1594,2.1778,2.1604,2.1604,2.1603,2.1603,0,2.1275,2.1337,2.1313,2.1354,2.1423,2.1398,2.1467,2.1469,2.1482,2.1525,2.149,2.1531,2.1511,2.1552,2.1542,2.1613,2.1622,2.1622,2.162,2.1628,2.1628,2.1645,2.1638,2.1608,2.1607,2.1606,2.1605,0,2.1421,2.1406,2.1476,2.148,2.1483,2.1534,2.1539,2.1579,2.1573,2.1628,2.1639,2.1632,2.1678,2.1668,2.1719,2.1713,2.1802,2.1787,2.1796,2.1793,2.1858,2.1853,2.2062,2.2089,2.1895,2.1897,2.1898,0,2.1513,2.1559,2.1568,2.1593,2.1601,2.1642,2.1665,2.1642,2.1668,2.1692,2.173,2.1772,2.1805,2.1881,2.1882,2.1921,2.191,2.198,2.1916,2.1922,2.1915,2.1913,2.1919,2.1994,2.1996,2.1998,2.2,0,2.1679,2.1669,2.1702,2.1733,2.1761,2.1785,2.1806,2.1829,2.1808,2.1839,2.1884,2.191,2.196,2.2004,2.204,2.205,2.2024,2.2019,2.2036,2.2046,2.2051,2.2052,2.1834,2.2016,2.2014,2.2013,2.2012,2.2011,2.1803,2.1842,2.1855,2.1893,2.1906,2.1926,2.1964,2.1962,2.1999,2.2037,2.2021,2.2074,2.2092,2.2137,2.2151,2.2194,2.2168,2.2192,2.2199,2.2206,2.2216,2.204,2.22,2.22,2.2199,2.2199,2.2199,0,2.197,2.1975,2.201,2.204,2.2071,2.2038,2.2059,2.2088,2.2134,2.2152,2.2184,2.2237,2.2279,2.2283,2.2323,2.2357,2.2345,2.2368,2.2368,2.2371,2.2235,2.2218,2.2377,2.2377,2.2377,2.2377,2.2377,2.2377,2.2061,2.2127,2.2119,2.2191,2.2197,2.2246,2.2261,2.2281,2.2295,2.2355,2.2388,2.2389,2.2402,2.2443,2.2481,2.2481,2.2499,2.2528,2.2524,2.2398,2.238,2.2363,2.2347,2.2531,2.2531,2.2656,2.2657,2.2658]},{"header":{"parameterUnit":"m.s-1","parameterCategory":1,"la1":30.2991,"la2":30.254,"lo1":-89.0895,"lo2":-89.0444,"dy":0.0017,"dx":0.0017,"nx":28,"ny":28,"refTime":"2023-06-26T21:00:00:Z","depth":0,"parameterNumber":3,"parameterNumberName":"V-component_of_WINDS"},"data":[0,0,0,0,0,0,0,0,0,0,0,0,0,0,0,0,0,0,0,0,0,0,0,0,0,0,0,0,0,0,0,0,0,0,0,0,0,0,0,0,0,0,0,0,0,0,0,0,0,0,0,0,0,0,0,0,0,0,2.0967,2.0967,0,2.1027,2.1028,2.1029,2.1068,2.1068,2.1068,2.1068,2.1128,2.1129,2.1131,0,0,0,0,0,0,0,0,0,0,0,0,0,2.0879,2.088,2.0966,2.0967,2.0968,2.1027,2.1028,2.1029,2.1067,2.1068,2.1068,2.1068,2.1127,2.1129,2.1131,0,0,0,0,0,0,0,0,0,0,0,0,0,2.0926,2.0881,2.0966,2.0994,2.0998,2.1027,2.1028,2.1029,2.1067,2.1068,2.1068,2.1068,2.1127,2.1129,2.1131,2.1137,0,0,2.1137,2.1138,0,0,0,0,0,0,0,0,2.0923,2.0929,2.099,2.0993,2.0996,2.104,2.1019,2.1065,2.1067,2.1041,2.1068,2.1069,2.1098,2.1103,2.1113,2.1139,2.1142,2.1137,2.1139,2.114,2.114,0,0,0,0,0,0,0,2.092,2.0927,2.0991,2.099,2.0994,2.1002,2.101,2.1028,2.1067,2.1043,2.1046,2.1053,2.11,2.1111,2.1115,2.1143,2.1137,2.1139,2.114,2.1141,2.1173,2.1173,0,0,0,0,0,0,2.0913,2.0924,2.0989,2.0992,2.096,2.1004,2.1012,2.1026,2.1067,2.1073,2.1053,2.1054,2.1108,2.1113,2.1117,2.1125,2.114,2.1141,2.1143,2.1173,2.1173,2.1172,0,0,0,0,0,0,2.0911,2.0918,2.0986,2.0959,2.0968,2.1005,2.102,2.1027,2.1038,2.1074,2.1081,2.1057,2.1108,2.1114,2.1131,2.1127,2.1142,2.1144,2.1174,2.1173,2.1173,2.114,0,0,0,0,0,0,2.0908,2.0917,2.0921,2.0959,2.0969,2.1,2.102,2.1028,2.1042,2.1045,2.108,2.1086,2.1109,2.1128,2.1133,2.113,2.1146,2.1174,2.1174,2.1173,2.1142,2.1139,2.1136,0,0,0,0,0,2.0905,2.091,2.0921,2.0929,2.0975,2.1,2.1006,2.1033,2.1041,2.1044,2.1067,2.1085,2.1127,2.1129,2.1135,2.1133,2.1175,2.1174,2.1173,2.1143,2.1139,2.1136,0,0,0,0,0,0,2.0871,2.0915,2.0929,2.0946,2.0969,2.1007,2.1012,2.1028,2.1049,2.1051,2.1082,2.109,2.1103,2.112,2.1122,2.1139,2.1153,2.1153,2.1128,2.1124,2.1121,2.1117,2.1148,0,0,0,0,0,2.0866,2.0883,2.0921,2.0932,2.0943,2.0975,2.0987,2.1005,2.103,2.104,2.1064,2.1086,2.1104,2.1115,2.1134,2.1144,2.1151,2.1145,2.1142,2.114,2.114,2.1143,2.1141,2.117,2.117,2.117,0,0,2.0855,2.0881,2.089,2.0926,2.0946,2.0961,2.0983,2.1,2.1011,2.1042,2.1059,2.1077,2.1103,2.1116,2.1123,2.1131,2.1133,2.1139,2.1136,2.1138,2.1142,2.1139,2.1137,2.1169,2.1169,2.1169,0,0,2.0843,2.0865,2.0876,2.0895,2.0925,2.0945,2.0948,2.0982,2.0995,2.1013,2.1035,2.1048,2.108,2.1097,2.111,2.11,2.1116,2.1105,2.1089,2.1093,2.109,2.1089,2.1083,2.1081,2.1105,2.1105,2.1105,0,2.0826,2.0851,2.088,2.0894,2.0908,2.0936,2.0946,2.0963,2.0997,2.1005,2.1013,2.105,2.107,2.1086,2.1083,2.1094,2.1095,2.1101,2.1089,2.1087,2.1086,2.1081,2.1079,2.1103,2.1103,2.1103,2.1103,0,2.0827,2.0844,2.0849,2.0881,2.0895,2.0907,2.0935,2.0946,2.0962,2.0981,2.0997,2.1021,2.1044,2.1049,2.1066,2.1067,2.107,2.1083,2.1097,2.1081,2.1076,2.1075,2.1101,2.1101,2.1102,2.1102,0,0,2.0798,2.0843,2.0844,2.0857,2.089,2.0903,2.0915,2.0937,2.0944,2.0966,2.0975,2.0999,2.101,2.1025,2.1043,2.1046,2.1033,2.1058,2.1059,2.1051,2.1033,2.1022,2.102,2.1044,2.1044,2.1044,2.103,0,2.079,2.0814,2.0838,2.0853,2.0867,2.0892,2.0902,2.0922,2.0939,2.0953,2.0971,2.0987,2.1002,2.101,2.1014,2.1034,2.103,2.1036,2.1051,2.1052,2.1043,2.1018,2.1007,2.0993,2.1029,2.1028,2.1028,0,2.0785,2.0804,2.082,2.0848,2.0855,2.0864,2.0884,2.0897,2.0919,2.0931,2.0946,2.0964,2.0975,2.0988,2.1002,2.1005,2.1013,2.1023,2.1023,2.1025,2.1039,2.1017,2.0989,2.0986,2.1026,2.1026,2.1027,0,2.076,2.079,2.0802,2.0813,2.0847,2.0852,2.0866,2.0888,2.0899,2.0916,2.0923,2.0941,2.0951,2.0964,2.0986,2.0994,2.0997,2.1012,2.1006,2.1005,2.1006,2.1005,2.0977,2.1012,2.1012,2.1012,2.1012,0,2.0749,2.0757,2.0791,2.0799,2.0807,2.0834,2.0841,2.0857,2.0876,2.0885,2.0908,2.0917,2.0946,2.0957,2.0974,2.0982,2.0987,2.0995,2.0999,2.0993,2.0991,2.0998,2.0999,2.1012,2.1012,2.1012,2.1012,0,2.0723,2.0747,2.0761,2.0791,2.0798,2.0803,2.0828,2.0835,2.0852,2.0864,2.0868,2.0895,2.0909,2.0932,2.0953,2.0964,2.0968,2.0976,2.096,2.0963,2.0954,2.0954,2.0928,2.0925,2.0964,2.0963,2.0963,0,2.0714,2.0721,2.075,2.0758,2.0771,2.0784,2.0794,2.0819,2.0828,2.0852,2.0855,2.087,2.0884,2.0904,2.0925,2.094,2.0948,2.0938,2.095,2.0942,2.0945,2.0944,2.0944,2.0934,2.0934,2.0934,2.0933,0,2.0695,2.0705,2.072,2.0737,2.0748,2.0763,2.0779,2.0784,2.0812,2.0821,2.0835,2.0845,2.0865,2.0879,2.0896,2.0909,2.0925,2.0929,2.0928,2.092,2.091,2.0914,2.0951,2.0929,2.093,2.093,2.093,2.093,2.0677,2.0682,2.0703,2.0717,2.0731,2.0744,2.0751,2.0768,2.078,2.0798,2.0812,2.0824,2.0842,2.0867,2.0878,2.0887,2.0895,2.0894,2.0893,2.0892,2.0889,2.0909,2.0891,2.0891,2.0891,2.0891,2.0891,0,2.0658,2.0671,2.0683,2.0704,2.0714,2.0727,2.0744,2.0752,2.0762,2.0778,2.079,2.0804,2.0817,2.0837,2.0851,2.0854,2.0861,2.0856,2.0856,2.0858,2.0882,2.0881,2.085,2.085,2.085,2.085,2.085,2.085,2.0649,2.0658,2.067,2.0684,2.0698,2.071,2.0718,2.0729,2.0741,2.0756,2.0766,2.0779,2.0796,2.081,2.0822,2.0827,2.083,2.0823,2.083,2.0853,2.0857,2.086,2.0859,2.0824,2.0824,2.0805,2.0805,2.0805]}]]